Time,TemperatureF,DewpointF,PressureIn,WindDirection,WindDirectionDegrees,WindSpeedMPH,WindSpeedGustMPH,Humidity,HourlyPrecipIn,Conditions,Clouds,dailyrainin,SolarRadiationWatts/m^2,SoftwareType,DateUTC
2013-01-14 00:02:00,3.0,0.0,-100.00,West,268,0.0,0.0,86,0.00,,,0.00,0.000000,,2013-01-14 07:02:00,
2013-01-14 00:12:00,3.0,0.0,-100.00,West,268,0.0,0.0,86,0.00,,,0.00,0.000000,,2013-01-14 07:12:00,
2013-01-14 00:22:00,3.0,0.0,-100.00,West,268,0.0,0.0,86,0.00,,,0.00,0.000000,,2013-01-14 07:22:00,
2013-01-14 00:52:00,3.0,0.0,-100.00,NE,42,0.0,0.0,87,0.00,,,0.00,0.000000,,2013-01-14 07:52:00,
2013-01-14 01:02:00,3.0,0.0,-100.00,NE,42,0.0,0.0,87,0.00,,,0.00,0.000000,,2013-01-14 08:02:00,
2013-01-14 01:12:00,3.0,0.0,-100.00,NE,42,0.0,0.0,87,0.00,,,0.00,0.000000,,2013-01-14 08:12:00,
2013-01-14 01:22:00,3.0,0.0,-100.00,NE,42,0.0,0.0,87,0.00,,,0.00,0.000000,,2013-01-14 08:22:00,
2013-01-14 01:53:00,3.0,0.0,-100.00,SSW,202,0.0,0.0,86,0.00,,,-99.99,0.000000,,2013-01-14 08:53:00,
2013-01-14 02:02:00,3.0,0.0,-100.00,SSW,202,0.0,0.0,86,0.00,,,-99.99,0.000000,,2013-01-14 09:02:00,
2013-01-14 02:12:00,3.0,0.0,-100.00,SSW,202,0.0,0.0,86,0.00,,,-99.99,0.000000,,2013-01-14 09:12:00,
2013-01-14 02:22:00,3.0,0.0,-100.00,SSW,202,0.0,0.0,86,0.00,,,-99.99,0.000000,,2013-01-14 09:22:00,
2013-01-14 02:53:00,2.0,-1.0,-100.00,SSE,147,0.0,4.0,88,0.00,,,0.00,0.000000,,2013-01-14 09:53:00,
2013-01-14 03:02:00,2.0,-1.0,-100.00,SSE,147,0.0,4.0,88,0.00,,,0.00,0.000000,,2013-01-14 10:02:00,
2013-01-14 03:12:00,2.0,-1.0,-100.00,SSE,147,0.0,4.0,88,0.00,,,0.00,0.000000,,2013-01-14 10:12:00,
2013-01-14 03:22:00,2.0,-1.0,-100.00,SSE,147,0.0,4.0,88,0.00,,,0.00,0.000000,,2013-01-14 10:22:00,
2013-01-14 03:53:00,2.0,-1.0,-100.00,SSW,201,0.0,0.0,87,0.00,,,0.00,0.000000,,2013-01-14 10:53:00,
2013-01-14 04:02:00,2.0,-1.0,-100.00,SSW,201,0.0,0.0,87,0.00,,,0.00,0.000000,,2013-01-14 11:02:00,
2013-01-14 04:12:00,2.0,-1.0,-100.00,SSW,201,0.0,0.0,87,0.00,,,0.00,0.000000,,2013-01-14 11:12:00,
2013-01-14 04:22:00,2.0,-1.0,-100.00,SSW,201,0.0,0.0,87,0.00,,,0.00,0.000000,,2013-01-14 11:22:00,
2013-01-14 04:53:00,1.0,-2.0,-100.00,South,190,0.0,2.0,87,0.00,,,0.00,0.000000,,2013-01-14 11:53:00,
2013-01-14 05:02:00,1.0,-2.0,-100.00,South,190,0.0,2.0,87,0.00,,,0.00,0.000000,,2013-01-14 12:02:00,
2013-01-14 05:12:00,1.0,-2.0,-100.00,South,190,0.0,2.0,87,0.00,,,0.00,0.000000,,2013-01-14 12:12:00,
2013-01-14 05:22:00,1.0,-2.0,-100.00,South,190,0.0,2.0,87,0.00,,,0.00,0.000000,,2013-01-14 12:22:00,
2013-01-14 05:53:00,0.0,-3.0,-100.00,SSE,156,0.0,3.0,86,0.00,,,0.00,0.000000,,2013-01-14 12:53:00,
2013-01-14 06:03:00,0.0,-3.0,-100.00,SSE,156,0.0,3.0,86,0.00,,,0.00,0.000000,,2013-01-14 13:03:00,
2013-01-14 06:12:00,0.0,-3.0,-100.00,SSE,156,0.0,3.0,86,0.00,,,0.00,0.000000,,2013-01-14 13:12:00,
2013-01-14 06:22:00,0.0,-3.0,-100.00,SSE,156,0.0,3.0,86,0.00,,,0.00,0.000000,,2013-01-14 13:22:00,
2013-01-14 06:53:00,0.0,-3.0,-100.00,ENE,65,0.0,0.0,87,0.00,,,0.00,0.000000,,2013-01-14 13:53:00,
2013-01-14 07:02:00,0.0,-3.0,-100.00,ENE,65,0.0,0.0,87,0.00,,,0.00,0.000000,,2013-01-14 14:02:00,
2013-01-14 07:12:00,0.0,-3.0,-100.00,ENE,65,0.0,0.0,87,0.00,,,0.00,0.000000,,2013-01-14 14:12:00,
2013-01-14 07:22:00,0.0,-3.0,-100.00,ENE,65,0.0,0.0,87,0.00,,,0.00,0.000000,,2013-01-14 14:22:00,
2013-01-14 07:53:00,-1.0,-4.0,-100.00,SSE,161,0.0,2.0,88,0.00,,,0.00,0.000000,,2013-01-14 14:53:00,
2013-01-14 08:03:00,-1.0,-4.0,-100.00,SSE,161,0.0,2.0,88,0.00,,,0.00,0.000000,,2013-01-14 15:03:00,
2013-01-14 08:53:00,0.0,-3.0,-100.00,WSW,241,0.0,0.0,86,0.00,,,0.00,0.000000,,2013-01-14 15:53:00,
2013-01-14 09:02:00,0.0,-3.0,-100.00,WSW,241,0.0,0.0,86,0.00,,,0.00,0.000000,,2013-01-14 16:02:00,
2013-01-14 09:12:00,0.0,-3.0,-100.00,WSW,241,0.0,0.0,86,0.00,,,0.00,0.000000,,2013-01-14 16:12:00,
2013-01-14 09:22:00,0.0,-3.0,-100.00,WSW,241,0.0,0.0,86,0.00,,,0.00,0.000000,,2013-01-14 16:22:00,
2013-01-14 09:53:00,1.0,-3.0,-100.00,South,189,0.0,0.0,84,0.00,,,0.00,1.000000,,2013-01-14 16:53:00,
2013-01-14 10:03:00,1.0,-3.0,-100.00,South,189,0.0,0.0,84,0.00,,,0.00,1.000000,,2013-01-14 17:03:00,
2013-01-14 10:12:00,1.0,-3.0,-100.00,South,189,0.0,0.0,84,0.00,,,0.00,1.000000,,2013-01-14 17:12:00,
2013-01-14 10:22:00,1.0,-3.0,-100.00,South,189,0.0,0.0,84,0.00,,,0.00,1.000000,,2013-01-14 17:22:00,
2013-01-14 10:53:00,4.0,-1.0,-100.00,NNE,13,0.0,0.0,80,0.00,,,0.00,7.000000,,2013-01-14 17:53:00,
2013-01-14 11:03:00,4.0,-1.0,-100.00,NNE,13,0.0,0.0,80,0.00,,,0.00,7.000000,,2013-01-14 18:03:00,
2013-01-14 11:12:00,4.0,-1.0,-100.00,NNE,13,0.0,0.0,80,0.00,,,0.00,7.000000,,2013-01-14 18:12:00,
2013-01-14 11:22:00,4.0,-1.0,-100.00,NNE,13,0.0,0.0,80,0.00,,,0.00,7.000000,,2013-01-14 18:22:00,
2013-01-14 11:53:00,5.0,0.0,-100.00,NNE,12,1.0,0.0,81,0.00,,,0.00,18.000000,,2013-01-14 18:53:00,
2013-01-14 12:03:00,5.0,0.0,-100.00,NNE,12,1.0,0.0,81,0.00,,,0.00,18.000000,,2013-01-14 19:03:00,
2013-01-14 12:12:00,5.0,0.0,-100.00,NNE,12,1.0,0.0,81,0.00,,,0.00,18.000000,,2013-01-14 19:12:00,
2013-01-14 12:22:00,5.0,0.0,-100.00,NNE,12,1.0,0.0,81,0.00,,,0.00,18.000000,,2013-01-14 19:22:00,
2013-01-14 12:53:00,10.0,4.0,-100.00,North,0,0.0,4.0,75,0.00,,,0.00,25.000000,,2013-01-14 19:53:00,
2013-01-14 13:03:00,10.0,4.0,-100.00,North,0,0.0,4.0,75,0.00,,,0.00,25.000000,,2013-01-14 20:03:00,
2013-01-14 13:12:00,10.0,4.0,-100.00,North,0,0.0,4.0,75,0.00,,,0.00,25.000000,,2013-01-14 20:12:00,
2013-01-14 13:22:00,10.0,4.0,-100.00,North,0,0.0,4.0,75,0.00,,,0.00,25.000000,,2013-01-14 20:22:00,
2013-01-14 13:53:00,12.0,6.0,-100.00,North,5,0.0,0.0,76,0.00,,,0.00,33.000000,,2013-01-14 20:53:00,
2013-01-14 14:02:00,12.0,6.0,-100.00,North,5,0.0,0.0,76,0.00,,,0.00,33.000000,,2013-01-14 21:02:00,
2013-01-14 14:12:00,12.0,6.0,-100.00,North,5,0.0,0.0,76,0.00,,,0.00,33.000000,,2013-01-14 21:12:00,
2013-01-14 14:22:00,12.0,6.0,-100.00,North,5,0.0,0.0,76,0.00,,,0.00,33.000000,,2013-01-14 21:22:00,
2013-01-14 14:53:00,13.0,7.0,-100.00,North,6,2.0,5.0,77,0.00,,,0.00,40.000000,,2013-01-14 21:53:00,
2013-01-14 15:02:00,13.0,7.0,-100.00,North,6,2.0,5.0,77,0.00,,,0.00,40.000000,,2013-01-14 22:02:00,
2013-01-14 15:12:00,13.0,7.0,-100.00,North,6,2.0,5.0,77,0.00,,,0.00,40.000000,,2013-01-14 22:12:00,
2013-01-14 15:22:00,13.0,7.0,-100.00,North,6,2.0,5.0,77,0.00,,,0.00,40.000000,,2013-01-14 22:22:00,
2013-01-14 15:52:00,16.0,9.0,-100.00,WSW,254,0.0,5.0,72,0.00,,,0.00,23.000000,,2013-01-14 22:52:00,
2013-01-14 16:02:00,16.0,9.0,-100.00,WSW,254,0.0,5.0,72,0.00,,,0.00,23.000000,,2013-01-14 23:02:00,
2013-01-14 16:12:00,16.0,9.0,-100.00,WSW,254,0.0,5.0,72,0.00,,,0.00,23.000000,,2013-01-14 23:12:00,
2013-01-14 16:22:00,16.0,9.0,-100.00,WSW,254,0.0,5.0,72,0.00,,,0.00,23.000000,,2013-01-14 23:22:00,
2013-01-14 16:53:00,15.0,11.0,-100.00,SW,234,0.0,0.0,83,0.00,,,0.00,12.000000,,2013-01-14 23:53:00,
2013-01-14 17:02:00,15.0,11.0,-100.00,SW,234,0.0,0.0,83,0.00,,,0.00,12.000000,,2013-01-15 00:02:00,
2013-01-14 17:12:00,15.0,11.0,-100.00,SW,234,0.0,0.0,83,0.00,,,0.00,12.000000,,2013-01-15 00:12:00,
2013-01-14 17:22:00,15.0,11.0,-100.00,SW,234,0.0,0.0,83,0.00,,,0.00,12.000000,,2013-01-15 00:22:00,
2013-01-14 17:53:00,14.0,11.0,-100.00,NNE,22,0.0,3.0,88,0.00,,,0.00,6.000000,,2013-01-15 00:53:00,
2013-01-14 18:02:00,14.0,11.0,-100.00,NNE,22,0.0,3.0,88,0.00,,,0.00,6.000000,,2013-01-15 01:02:00,
2013-01-14 18:12:00,14.0,11.0,-100.00,NNE,22,0.0,3.0,88,0.00,,,0.00,6.000000,,2013-01-15 01:12:00,
2013-01-14 18:22:00,14.0,11.0,-100.00,NNE,22,0.0,3.0,88,0.00,,,0.00,6.000000,,2013-01-15 01:22:00,
2013-01-14 18:52:00,13.0,11.0,-100.00,SSW,192,1.0,0.0,91,0.00,,,0.00,0.000000,,2013-01-15 01:52:00,
2013-01-14 19:02:00,13.0,11.0,-100.00,SSW,192,1.0,0.0,91,0.00,,,0.00,0.000000,,2013-01-15 02:02:00,
2013-01-14 19:12:00,13.0,11.0,-100.00,SSW,192,1.0,0.0,91,0.00,,,0.00,0.000000,,2013-01-15 02:12:00,
2013-01-14 19:22:00,13.0,11.0,-100.00,SSW,192,1.0,0.0,91,0.00,,,0.00,0.000000,,2013-01-15 02:22:00,
2013-01-14 19:53:00,13.0,11.0,-100.00,NNE,19,0.0,7.0,92,0.00,,,0.00,0.000000,,2013-01-15 02:53:00,
2013-01-14 20:02:00,13.0,11.0,-100.00,NNE,19,0.0,7.0,92,0.00,,,0.00,0.000000,,2013-01-15 03:02:00,
2013-01-14 20:12:00,13.0,11.0,-100.00,NNE,19,0.0,7.0,92,0.00,,,0.00,0.000000,,2013-01-15 03:12:00,
2013-01-14 20:22:00,13.0,11.0,-100.00,NNE,19,0.0,7.0,92,0.00,,,0.00,0.000000,,2013-01-15 03:22:00,
2013-01-14 20:52:00,13.0,11.0,-100.00,SSE,163,0.0,3.0,92,0.00,,,0.00,0.000000,,2013-01-15 03:52:00,
2013-01-14 21:02:00,13.0,11.0,-100.00,SSE,163,0.0,3.0,92,0.00,,,0.00,0.000000,,2013-01-15 04:02:00,
2013-01-14 21:12:00,13.0,11.0,-100.00,SSE,163,0.0,3.0,92,0.00,,,0.00,0.000000,,2013-01-15 04:12:00,
2013-01-14 21:22:00,13.0,11.0,-100.00,SSE,163,0.0,3.0,92,0.00,,,0.00,0.000000,,2013-01-15 04:22:00,
2013-01-14 21:52:00,13.0,11.0,-100.00,NE,36,0.0,0.0,92,0.00,,,0.00,0.000000,,2013-01-15 04:52:00,
2013-01-14 22:03:00,13.0,11.0,-100.00,NE,36,0.0,0.0,92,0.00,,,0.00,0.000000,,2013-01-15 05:03:00,
2013-01-14 22:12:00,13.0,11.0,-100.00,NE,36,0.0,0.0,92,0.00,,,0.00,0.000000,,2013-01-15 05:12:00,
2013-01-14 22:22:00,13.0,11.0,-100.00,NE,36,0.0,0.0,92,0.00,,,0.00,0.000000,,2013-01-15 05:22:00,
2013-01-14 22:52:00,12.0,10.0,-100.00,South,190,0.0,0.0,91,0.00,,,0.00,0.000000,,2013-01-15 05:52:00,
2013-01-14 23:02:00,12.0,10.0,-100.00,South,190,0.0,0.0,91,0.00,,,0.00,0.000000,,2013-01-15 06:02:00,
2013-01-14 23:12:00,12.0,10.0,-100.00,South,190,0.0,0.0,91,0.00,,,0.00,0.000000,,2013-01-15 06:12:00,
2013-01-14 23:22:00,12.0,10.0,-100.00,South,190,0.0,0.0,91,0.00,,,0.00,0.000000,,2013-01-15 06:22:00,
2013-01-14 23:53:00,12.0,10.0,-100.00,South,186,0.0,0.0,90,0.00,,,0.00,0.000000,,2013-01-15 06:53:00,